Regional Weather Roundup
Issued by NWS

Home | Current Version | Previous Version | Text Only | Print | Product List | Glossary On
Versions: 1 2 3 4 5 6 7 8 9 10 11 12 13 14 15 16 17 18 19 20 21 22 23 24 25 26 27 28 29 30 31 32 33 34 35 36 37 38 39 40 41 42 43 44 45 46 47 48 49 50
000
ASUS43 KOAX 051502
RWRNE

WEATHER ROUNDUP FOR NEBRASKA
NATIONAL WEATHER SERVICE OMAHA NE
900 AM CST THU MAR 05 2015

NOTES: SATELLITE DATA IS BEING USED TO AUGMENT CLOUD COVER ABOVE
       12000 FEET.
       "FAIR" INDICATES FEW OR NO CLOUDS BELOW 12,000 FEET WITH NO
       SIGNIFICANT WEATHER AND/OR OBSTRUCTIONS TO VISIBILITY.

  * THESE STATIONS DO NOT REPORT WEATHER SUCH AS RAIN...SNOW OR FOG.

NEZ001>004-019>022-054>056-051600-
NEBRASKA PANHANDLE

CITY           SKY/WX    TMP DP  RH WIND       PRES   REMARKS
SCOTTSBLUFF    MOSUNNY   17   9  70 NW6       30.20R WCI   9
ALLIANCE       SUNNY     18  10  71 W9        30.18R WCI   7
CHADRON        MOSUNNY    4   2  91 CALM      30.20R
SIDNEY         SUNNY     23  12  62 W12       30.21R WCI  12
$$

NEZ057>060-069>072-079>082-051600-
SOUTHWEST NEBRASKA

CITY           SKY/WX    TMP DP  RH WIND       PRES   REMARKS
NORTH PLATTE   SUNNY     13   4  67 S5        30.32S WCI   5
IMPERIAL         N/A     17  10  74 W8        30.29R WCI   7
MCCOOK         SUNNY     15   6  67 CALM      30.37R
$$

NEZ005>010-023>029-035>040-094-051600-
NORTH CENTRAL NEBRASKA

CITY           SKY/WX    TMP DP  RH WIND       PRES   REMARKS
VALENTINE      MOSUNNY   12   5  73 SW7       30.26S WCI   1
AINSWORTH      SUNNY     13   4  69 S16       30.28S WCI  -3
BROKEN BOW     SUNNY     12   1  61 S13G23    30.36R WCI  -3
ORD            SUNNY     13   3  64 S14       30.40R WCI  -2
$$

NEZ041-046>049-061>064-073>077-083>087-051600-
SOUTH CENTRAL NEBRASKA

CITY           SKY/WX    TMP DP  RH WIND       PRES   REMARKS
GRAND ISLAND   SUNNY     14   3  61 S12       30.47R WCI   0
HASTINGS       SUNNY     12   0  58 S9        30.45R WCI   0
KEARNEY *      SUNNY     12   3  67 S10       30.43R WCI  -1
$$

NEZ011>018-030>034-042>045-051600-
NORTHEAST NEBRASKA

CITY           SKY/WX    TMP DP  RH WIND       PRES   REMARKS
NORFOLK        SUNNY     12   1  61 S12       30.47R WCI  -2
BLAIR          SUNNY     11  -1  58 S3        30.53R
COLUMBUS *     SUNNY     12  -6  44 SW6       30.52R WCI   3
TEKAMAH        SUNNY      9  -1  64 SE5       30.57R WCI   1
$$

NEZ050>053-065>068-078-088>093-051600-
SOUTHEAST NEBRASKA

CITY           SKY/WX    TMP DP  RH WIND       PRES   REMARKS
LINCOLN        SUNNY     11   3  70 S5        30.56R WCI   3
OMAHA EPPLEY   SUNNY      9   0  67 SE5       30.58R WCI   1
FALLS CITY     SUNNY     12   0  58 CALM      30.59R
$$

NEZ044-045-051>053-067-051600-
OMAHA AREA

CITY           SKY/WX    TMP DP  RH WIND       PRES   REMARKS
OMAHA EPPLEY   SUNNY      9   0  67 SE5       30.58R WCI   1
BLAIR          SUNNY     11  -1  58 S3        30.53R
OFFUTT AFB     SUNNY     10   1  66 S5        30.57R WCI   1
$$



USA.gov is the U.S. government's official web portal to all federal, state and local government web resources and services.